Regional Weather Roundup
Issued by NWS Little Rock, AR

Home | Current Version | Previous Version | Text Only | Print | Product List | Glossary On
Versions: 1 2 3 4 5 6 7 8 9 10 11 12 13 14 15 16 17 18 19 20 21 22 23 24 25 26 27 28 29 30 31 32 33
000
ASUS44 KLZK 220705
RWRLZK

WEATHER ROUNDUP FOR ARKANSAS
NATIONAL WEATHER SERVICE LITTLE ROCK AR
200 AM CDT SAT JUL 22 2017

NOTE: "FAIR" INDICATES FEW OR NO CLOUDS BELOW 12,000 FEET WITH NO
SIGNIFICANT WEATHER AND/OR OBSTRUCTIONS TO VISIBILITY.

ARZ001-003-010-029-220800-
NORTHWEST ARKANSAS

CITY           SKY/WX    TMP DP  RH WIND       PRES   REMARKS
FAYETTEVILLE   CLEAR     73  72  96 CALM      29.98F
FORT SMITH     CLEAR     81  73  76 CALM      29.93F HX  86
HARRISON       CLEAR     77  73  87 E3        29.98F
BENTONVILLE    CLEAR     79  70  73 CALM      29.98F
ROGERS         CLEAR     79  71  76 SW8       29.98F
SILOAM SPGS    CLEAR     75  68  78 SW7       29.98S
HIGHFILL       CLEAR     76  72  87 S5        29.98F
$$

ARZ004-005-016-220800-
NORTH CENTRAL ARKANSAS

CITY           SKY/WX    TMP DP  RH WIND       PRES   REMARKS
BATESVILLE     CLEAR     81  73  78 W3        29.95F HX  85
FLIPPIN        PTCLDY    81  70  69 SW3       29.93F
MTN HOME       CLEAR     78  73  84 CALM      29.95F
$$

ARZ040-041-220800-
WEST CENTRAL ARKANSAS

CITY           SKY/WX    TMP DP  RH WIND       PRES   REMARKS
MENA           PTCLDY    77  75  94 CALM      30.00F
MOUNT IDA      CLEAR     76  73  91 CALM      29.96F
$$

ARZ009-017-025-026-028-220800-
NORTHEAST ARKANSAS

CITY           SKY/WX    TMP DP  RH WIND       PRES   REMARKS
JONESBORO      CLEAR     83  78  85 SW7       29.93F HX  93
WALNUT RIDGE   CLEAR     81  75  83 S5        29.93F HX  86
BLYTHEVILLE    PTCLDY    81  77  88 SW6       29.94F HX  88
$$

ARZ022-023-033-042-044-220800-
CENTRAL ARKANSAS

CITY           SKY/WX    TMP DP  RH WIND       PRES   REMARKS
LITTLE ROCK    CLEAR     80  78  94 SW5       29.95F HX  88
N LITTLE ROCK    N/A     81  76  84 CALM      29.93F HX  87
JACKSONVILLE   CLEAR     79  77  94 CALM      29.94F
CONWAY           N/A     79  77  94 CALM      29.93F
SEARCY         CLEAR     78  78 100 CALM      29.96F
HOT SPRINGS    CLEAR     81  77  88 CALM      29.96F HX  88
RUSSELLVILLE   CLEAR     77  75  93 CALM      29.94F
CLINTON        FAIR      77  75  94 CALM      29.96F FOG
$$

ARZ036-220800-
EAST ARKANSAS

CITY           SKY/WX    TMP DP  RH WIND       PRES   REMARKS
WEST MEMPHIS   CLEAR     78  77  96 CALM      29.94F
$$

ARZ050-053-066-070-073-220800-
SOUTHWEST ARKANSAS

CITY           SKY/WX    TMP DP  RH WIND       PRES   REMARKS
ARKADELPHIA    FAIR      76  74  93 CALM      29.95F
CAMDEN         CLEAR     75  73  94 CALM      29.95S
TEXARKANA      CLEAR     79  75  87 SW5       29.96F
EL DORADO      PTCLDY    77  75  93 CALM      29.95F
DE QUEEN       PTCLDY    77  77 100 CALM      29.94F
$$

ARZ056-057-069-220800-
SOUTHEAST ARKANSAS

CITY           SKY/WX    TMP DP  RH WIND       PRES   REMARKS
PINE BLUFF     CLEAR     79  75  87 S3        29.95F
STUTTGART      CLEAR     81  66  61 S6        29.96S
MONTICELLO     CLEAR     80  76  87 CALM      29.95F HX  86

$$






USA.gov is the U.S. government's official web portal to all federal, state and local government web resources and services.